Погода в Холмах

Украина / Черниговская область     51°52′38″N   32°36′24″E
темп.,
°C
ветер,
м/с
пор.,
м/с
влажн.,
%
обл.,
%
осадки,
мм/ч
давл.,
гПа
погр.,
м
4 марта, чт
чт423:00−1з49880 0.0 1020225
02:00−1зюз49880 0.0 1018236
05:00−4юз511910 0.0 1014229
08:00−2юз612930 0.0 1011330
11:00+1юз5910016 0.0 1009416
14:00+2юз51010044 0.0 1006503
17:00+3зюз41099100 0.1 1005300
20:00+2зсз41096100 0.1 1006436
5 марта, пт
пт523:00−1зсз499387 0.0 1007331
02:00−2зсз389689 0.0 1008242
05:00−3сз239670 0.0 101077
08:00−3с359071 0.0 1011228
11:00−1ссз237882 0.0 1013534
14:000ссз347091 0.0 1013858
17:00−1ссз2376100 0.0 1014115
20:00−3ссз2280100 0.0 101649
6 марта, сб
сб623:00−3сз3879100 0.0 1017356
02:00−4ссз51078100 0.0 1019557
05:00−6сз49763 0.0 1019453
08:00−5сз59681 0.0 1020692
11:00−3сз577035 0.0 10211028
14:00−2сз466158 0.1 10211264
17:00−3сз366413 0.0 1021428
20:00−4зсз37716 0.0 1023212
7 марта, вс
вс723:00−4зюз48750 0.0 1023264
02:00−5зюз511740 0.0 1021422
05:00−4юз7146644 0.0 1018626
08:00−3юз9166772 0.0 1014932
11:000зюз111768100 0.0 10101310
14:00+1з101671100 0.0 10091360
17:00+1з81576100 0.0 10081127
20:000зюз7148298 0.1 10071005
8 марта, пн
пн823:000зюз9168298 0.0 10061222
02:00−2зсз6136996 0.3 10061214
05:00−3зсз7136790 0.0 10071175
08:00−4сз7106977 0.0 10101067
11:00−3сз5765100 0.0 10111075
14:00−2зсз4659100 0.1 10121193
17:00−3сз2369100 0.1 1012706
20:00−4всв1184100 0.1 1014229